Coal Valley, IL

1:26 PM CST on December 07, 2016 (GMT -0600)
Quad-City International

Weather History for KMLI - September, 2012

Change the Weather History Date:

Wednesday, September 5, 2012

  Actual Average Record
Temperature  
Mean Temperature 74 °F 70 °F  
Max Temperature 85 °F 81 °F 99 °F (1899)
Min Temperature 63 °F 59 °F 42 °F (1974)
Degree Days  
Heating Degree Days 0 1  
Month to date heating degree days 0 5  
Since 1 July heating degree days 3 13  
Cooling Degree Days 9 6  
Month to date cooling degree days 58 31  
Year to date cooling degree days 1177 914  
Growing Degree Days 24 (Base 50)    
Moisture  
Dew Point 64 °F    
Average Humidity 76    
Maximum Humidity 97    
Minimum Humidity 55    
Precipitation  
Precipitation 0.62 in 0.11 in 3.22 in (1914)
Month to date precipitation 0.93 0.59  
Year to date precipitation 18.97 27.75  
Snow  
Snow T in 0.00 in - ()
Month to date snowfall T 0.0  
Since 1 July snowfall T 0.0  
Since 1 September snowfall T 0.0  
Snow Depth 0.00 in    
Sea Level Pressure  
Sea Level Pressure 29.84 in    
Wind  
Wind Speed 7 mph (WSW)    
Max Wind Speed 30 mph    
Max Gust Speed 43 mph    
Visibility 9 miles    
Events Rain , Thunderstorm    
T = Trace of Precipitation, MM = Missing Value Source: NWS Daily Summary

Daily Weather History Graph

Daily Weather History Graph

Search for Another Location

Airport or City:

Trip Planner

Search our weather history database for the weather conditions in past years. The results will help you decide how hot, cold, wet, or windy it might be!

Date:

Astronomy

Sep. 05, 2012 Rise Set
Actual Time 6:32 AM CDT 7:27 PM CDT
Civil Twilight 6:04 AM CDT 7:55 PM CDT
Nautical Twilight 5:31 AM CDT 8:29 PM CDT
Astronomical Twilight 4:56 AM CDT 9:03 PM CDT
Moon 9:53 PM CDT (9/5) 11:41 AM CDT (9/5)
Length of Visible Light 13h 51m
Length of Day
12h 54m
Waning Gibbous, 76% of the Moon is Illuminated
Sep 5
Waning Gibbous
Sep 8
Last Quarter
Sep 15
New
Sep 22
First Quarter
Sep 29
Full

Hourly Weather History & Observations

Time (CDT) Temp. Heat Index Dew Point Humidity Pressure Visibility Wind Dir Wind Speed Gust Speed Precip Events Conditions
12:52 AM 69.1 °F - 59.0 °F 70% 29.86 in 10.0 mi ESE 10.4 mph - N/A   Clear
1:52 AM 66.9 °F - 59.0 °F 76% 29.81 in 10.0 mi SE 6.9 mph - N/A   Clear
2:52 AM 66.9 °F - 59.0 °F 76% 29.80 in 10.0 mi SSE 9.2 mph - N/A   Clear
3:52 AM 66.9 °F - 60.1 °F 79% 29.80 in 10.0 mi SE 5.8 mph - N/A   Clear
4:31 AM 71.6 °F - 59.0 °F 64% 29.92 in 10.0 mi NNW 15.0 mph 32.2 mph N/A Thunderstorm Mostly Cloudy
4:47 AM 62.6 °F - 62.6 °F 100% 29.98 in 1.8 mi NNW 17.3 mph 39.1 mph 0.06 in Rain , Thunderstorm Heavy Thunderstorms and Rain
4:52 AM 63.0 °F - 62.1 °F 97% 29.97 in 2.5 mi NNW 15.0 mph 34.5 mph 0.22 in Rain , Thunderstorm Heavy Rain
4:55 AM 62.6 °F - 60.8 °F 94% 29.98 in 3.0 mi NNW 13.8 mph 25.3 mph 0.03 in Rain , Thunderstorm Heavy Rain
5:08 AM 64.4 °F - 62.6 °F 94% 29.98 in 5.0 mi North 11.5 mph 21.9 mph 0.12 in Rain , Thunderstorm Thunderstorms and Rain
5:23 AM 64.4 °F - 60.8 °F 88% 29.97 in 8.0 mi NNE 9.2 mph - 0.14 in Rain Light Rain
5:44 AM 64.4 °F - 60.8 °F 88% 29.97 in 9.0 mi North 10.4 mph - 0.16 in Rain , Thunderstorm Thunderstorms and Rain
5:52 AM 64.0 °F - 61.0 °F 90% 29.96 in 6.0 mi North 9.2 mph - 0.19 in Rain , Thunderstorm Thunderstorms and Rain
6:09 AM 64.4 °F - 62.6 °F 94% 29.94 in 6.0 mi East 13.8 mph - N/A Rain Rain
6:52 AM 64.0 °F - 62.1 °F 93% 29.88 in 10.0 mi ESE 15.0 mph - 0.11 in   Partly Cloudy
7:52 AM 64.9 °F - 61.0 °F 87% 29.79 in 10.0 mi SE 17.3 mph - 0.01 in   Mostly Cloudy
8:52 AM 68.0 °F - 62.1 °F 81% 29.78 in 10.0 mi Calm Calm - N/A   Clear
9:29 AM 71.6 °F - 62.6 °F 73% 29.81 in 9.0 mi West 10.4 mph - 0.00 in Rain , Thunderstorm Thunderstorms and Rain
9:52 AM 69.1 °F - 62.1 °F 78% 29.78 in 4.0 mi South 11.5 mph 17.3 mph 0.09 in Rain , Thunderstorm Thunderstorms and Rain
10:13 AM 69.8 °F - 62.6 °F 78% 29.79 in 10.0 mi South 15.0 mph - 0.00 in   Partly Cloudy
10:52 AM 73.9 °F - 64.9 °F 73% 29.76 in 10.0 mi SW 8.1 mph - 0.00 in   Clear
11:52 AM 82.0 °F 84.5 °F 66.9 °F 60% 29.78 in 10.0 mi WSW 9.2 mph - N/A   Clear
12:52 PM 84.0 °F 86.3 °F 66.0 °F 55% 29.79 in 10.0 mi SW 12.7 mph - N/A   Scattered Clouds
1:52 PM 84.0 °F 86.5 °F 66.9 °F 56% 29.78 in 10.0 mi WSW 11.5 mph - N/A   Clear
2:52 PM 82.9 °F 85.8 °F 68.0 °F 60% 29.78 in 10.0 mi SW 12.7 mph 18.4 mph N/A   Clear
3:52 PM 84.0 °F 87.0 °F 68.0 °F 58% 29.78 in 10.0 mi WSW 9.2 mph - N/A   Clear
4:52 PM 84.0 °F 86.5 °F 66.9 °F 56% 29.78 in 10.0 mi WNW 10.4 mph - N/A   Clear
5:52 PM 84.0 °F 87.8 °F 69.1 °F 61% 29.79 in 10.0 mi West 6.9 mph - N/A   Clear
6:52 PM 79.0 °F - 69.1 °F 72% 29.79 in 10.0 mi WSW 4.6 mph - N/A   Partly Cloudy
7:52 PM 75.0 °F - 70.0 °F 84% 29.81 in 10.0 mi Calm Calm - N/A   Clear
8:52 PM 73.9 °F - 70.0 °F 87% 29.82 in 10.0 mi Calm Calm - N/A   Scattered Clouds
9:52 PM 73.0 °F - 69.1 °F 87% 29.82 in 10.0 mi Calm Calm - N/A   Partly Cloudy
10:52 PM 70.0 °F - 68.0 °F 93% 29.83 in 10.0 mi Calm Calm - N/A   Mostly Cloudy
11:52 PM 72.0 °F - 68.0 °F 87% 29.84 in 10.0 mi Calm Calm - N/A   Partly Cloudy